FW8060 Weather Reports


time (UTC)temp
C
wind
direction
speed
KPH
gust
KPH
rain 1hr
cm
rain 24hr
cm
rain mn
cm
humidity
%
barometer
mb
20260506184815 11 309 9.7 19.3 0.00 0.00 0.00 80 1011.6
20260506183812 12 355 8.0 20.9 0.00 0.00 0.00 79 1011.3
20260506182829 12 317 8.0 16.1 0.00 0.00 0.00 79 1011.4
20260506181811 12 346 9.7 19.3 0.00 0.00 0.00 79 1011.2
20260506180808 12 331 9.7 20.9 0.00 0.00 0.00 77 1011.1
20260506175828 12 338 11.3 22.5 0.00 0.00 0.00 77 1011.0
20260506175331 12 325 8.0 16.1 0.00 0.00 0.00 76 1010.8
20260506173849 12 302 8.0 17.7 0.00 0.00 0.00 75 1010.6
20260506172821 12 335 9.7 24.1 0.00 0.00 0.00 75 1010.6
20260506171808 12 351 9.7 20.9 0.00 0.00 0.00 74 1010.5
20260506171508 13 14 11.3 20.9 0.00 0.00 0.00 75 1010.3
20260506171111 13 325 12.9 24.1 0.00 0.00 0.00 72 1010.3
20260506170831 13 313 9.7 20.9 0.00 0.00 0.00 75 1010.4
20260506163809 13 337 11.3 25.7 0.00 0.00 0.00 70 1010.1
20260506163253 13 347 11.3 27.4 0.00 0.00 0.00 70 1010.0
20260506161852 14 28 12.9 27.4 0.00 0.00 0.00 69 1010.0
20260506160814 13 346 8.0 20.9 0.00 0.00 0.00 69 1010.0
20260506155821 13 355 11.3 25.7 0.00 0.00 0.00 71 1010.1
20260506154815 14 302 14.5 27.4 0.00 0.00 0.00 71 1010.0
20260506153815 14 336 12.9 24.1 0.00 0.00 0.00 72 1010.1
20260506152810 13 350 11.3 22.5 0.00 0.00 0.00 70 1010.0
20260506151804 14 22 12.9 27.4 0.00 0.00 0.00 71 1010.1
20260506150806 14 339 14.5 25.7 0.00 0.00 0.00 70 1010.0
20260506145805 14 330 12.9 27.4 0.00 0.00 0.00 69 1010.1
20260506144810 14 330 16.1 29.0 0.00 0.00 0.00 70 1010.1
20260506143806 14 317 12.9 24.1 0.00 0.00 0.00 70 1010.0
20260506142806 14 329 12.9 24.1 0.00 0.00 0.00 69 1010.1
20260506141804 14 332 11.3 20.9 0.00 0.00 0.00 69 1010.0
20260506141027 15 34 11.3 25.7 0.00 0.00 0.00 67 1009.9
20260506140802 15 307 9.7 25.7 0.00 0.00 0.00 67 1009.9
20260506134806 14 306 11.3 24.1 0.00 0.00 0.00 67 1009.9
20260506133757 15 322 9.7 24.1 0.00 0.00 0.00 67 1009.9
20260506132759 14 355 11.3 24.1 0.00 0.00 0.00 69 1010.0
20260506131800 13 38 8.0 19.3 0.00 0.00 0.00 71 1009.9
20260506131215 13 346 9.7 20.9 0.00 0.00 0.00 74 1009.7
20260506130822 13 9 9.7 22.5 0.00 0.00 0.00 72 1009.9
20260506125816 13 5 11.3 24.1 0.00 0.00 0.00 73 1009.8
20260506123755 13 346 9.7 20.9 0.00 0.00 0.00 75 1009.6
20260506123431 13 350 11.3 24.1 0.00 0.00 0.00 76 1009.7
20260506122806 13 294 11.3 20.9 0.00 0.00 0.00 75 1009.7
20260506120802 13 355 9.7 17.7 0.00 0.00 0.00 76 1009.8
20260506115759 13 327 8.0 17.7 0.00 0.00 0.00 76 1009.7
20260506114755 13 319 11.3 24.1 0.00 0.00 0.00 76 1009.8
20260506113757 13 327 9.7 20.9 0.00 0.00 0.00 77 1009.8
20260506113128 13 339 11.3 22.5 0.00 0.00 0.00 76 1009.8
20260506112828 13 328 9.7 22.5 0.00 0.00 0.00 77 1009.7
20260506110800 13 326 9.7 25.7 0.00 0.00 0.00 77 1009.8
20260506105759 12 5 12.9 24.1 0.00 0.00 0.00 78 1009.7
20260506104754 12 318 11.3 19.3 0.00 0.00 0.00 79 1009.8
20260506103757 12 289 9.7 29.0 0.00 0.00 0.00 81 1009.7
20260506102752 11 335 11.3 25.7 0.00 0.00 0.00 82 1009.7
20260506101750 11 318 9.7 22.5 0.00 0.00 0.00 84 1009.8
20260506100751 11 332 8.0 22.5 0.00 0.00 0.00 86 1009.9
20260506095749 10 338 8.0 24.1 0.00 0.00 0.00 88 1009.9
20260506095554 10 338 8.0 24.1 0.00 0.00 0.00 88 1010.0
20260506093751 10 349 6.4 20.9 0.00 0.00 0.00 86 1009.9
20260506092749 10 28 9.7 27.4 0.00 0.00 0.00 83 1009.9
20260506091750 11 347 4.8 14.5 0.00 0.00 0.00 82 1009.7
20260506090752 11 10 6.4 20.9 0.00 0.00 0.00 81 1009.5
20260506085819 11 333 8.0 25.7 0.00 0.00 0.00 80 1009.5
20260506084748 11 44 8.0 24.1 0.00 0.00 0.00 81 1009.4
20260506083749 11 19 8.0 24.1 0.00 0.00 0.00 81 1009.3
20260506082747 11 319 6.4 20.9 0.00 0.00 0.00 81 1009.3
20260506081745 11 34 6.4 19.3 0.00 0.00 0.00 81 1009.2
20260506080747 11 327 9.7 22.5 0.00 0.00 0.00 80 1009.1
20260506072900 11 13 9.7 22.5 0.00 0.00 0.00 82 1008.9
20260506070838 10 53 11.3 24.1 0.00 0.00 0.00 82 1008.9
20260506061749 9 355 8.0 19.3 0.00 0.00 0.00 87 1008.7
20260506061640 9 330 6.4 12.9 0.00 0.00 0.00 87 1008.7
20260506061607 9 333 6.4 12.9 0.00 0.00 0.00 87 1008.6
20260506060920 9 331 6.4 16.1 0.00 0.00 0.00 87 1008.7
20260506050740 8 338 6.4 14.5 0.00 0.00 0.00 87 1008.5
20260506050231 8 345 6.4 12.9 0.00 0.00 0.00 86 1008.7
20260506044747 8 325 6.4 12.9 0.00 0.00 0.00 87 1008.5
20260506042739 8 331 6.4 11.3 0.00 0.00 0.00 86 1008.8
20260506041746 8 336 6.4 9.7 0.00 0.00 0.00 85 1008.8
20260506040743 8 350 4.8 12.9 0.00 0.00 0.00 85 1008.8
20260506035739 8 329 1.6 8.0 0.00 0.00 0.00 85 1008.8
20260506034734 8 355 4.8 14.5 0.00 0.00 0.00 86 1008.9
20260506033734 8 9 3.2 8.0 0.00 0.00 0.00 86 1008.9
20260506032852 8 5 1.6 8.0 0.00 0.00 0.00 86 1008.9
20260506032742 8 9 3.2 12.9 0.00 0.00 0.00 86 1008.9
20260506030734 8 13 3.2 14.5 0.00 0.00 0.00 86 1009.0
20260506025731 8 5 3.2 12.9 0.00 0.00 0.00 86 1009.0
20260506024730 8 22 3.2 12.9 0.00 0.00 0.00 86 1008.9
20260506023731 8 5 3.2 9.7 0.00 0.00 0.00 86 1008.9
20260506022740 8 355 3.2 16.1 0.00 0.00 0.00 86 1009.0
20260506022630 8 9 4.8 14.5 0.00 0.00 0.00 85 1009.2
20260506022558 8 5 4.8 16.1 0.00 0.00 0.00 85 1009.2
20260506022208 8 17 3.2 14.5 0.00 0.00 0.00 86 1009.2
20260506022100 8 9 3.2 8.0 0.00 0.00 0.00 85 1009.2
20260506022010 8 346 3.2 8.0 0.00 0.00 0.00 84 1009.3
20260506021732 8 5 3.2 16.1 0.00 0.00 0.00 86 1009.0
20260506020809 8 26 3.2 11.3 0.00 0.00 0.00 86 1009.0
20260506015746 8 331 4.8 12.9 0.00 0.00 0.00 86 1009.1
20260506014047 8 343 3.2 9.7 0.00 0.00 0.00 86 1009.1
20260506010753 8 33 4.8 14.5 0.00 0.00 0.00 85 1009.2
20260506003741 9 355 3.2 12.9 0.00 0.00 0.00 85 1009.3
20260506002734 9 39 3.2 9.7 0.00 0.00 0.00 85 1009.3
20260506001727 9 12 3.2 11.3 0.00 0.00 0.00 86 1009.4
20260506000729 9 0 4.8 12.9 0.00 0.00 0.00 86 1009.6
20260505235729 9 47 4.8 14.5 0.00 0.00 0.00 86 1009.5
20260505234733 9 9 4.8 12.9 0.00 0.00 0.00 87 1009.6
20260505233730 9 355 3.2 12.9 0.00 0.00 0.00 87 1009.7
20260505232727 9 13 4.8 14.5 0.00 0.00 0.00 87 1009.6
20260505231727 9 21 4.8 14.5 0.00 0.00 0.00 88 1009.7
20260505230726 9 0 3.2 14.5 0.00 0.00 0.00 88 1009.7
20260505230716 9 344 3.2 12.9 0.00 0.00 0.00 88 1009.7
20260505224733 9 331 3.2 9.7 0.00 0.00 0.00 87 1009.7
20260505223732 9 350 3.2 14.5 0.00 0.00 0.00 87 1009.7
20260505222733 10 355 3.2 9.7 0.00 0.00 0.00 87 1009.7
20260505221743 10 12 1.6 9.7 0.00 0.00 0.00 86 1009.8
20260505221726 10 355 3.2 9.7 0.00 0.00 0.00 87 1009.8
20260505215721 10 343 1.6 8.0 0.00 0.00 0.00 86 1009.7
20260505214722 10 342 3.2 9.7 0.00 0.00 0.00 85 1009.7
20260505213722 10 46 3.2 8.0 0.00 0.00 0.00 85 1009.7
20260505212726 10 0 3.2 9.7 0.00 0.00 0.00 85 1009.6
20260505211727 10 9 3.2 16.1 0.00 0.00 0.00 85 1009.6
20260505210728 10 319 3.2 12.9 0.00 0.00 0.00 85 1009.6
20260505205721 10 5 3.2 9.7 0.00 0.00 0.00 85 1009.6
20260505205113 10 336 3.2 12.9 0.00 0.00 0.00 85 1009.6
20260505204751 10 5 3.2 12.9 0.00 0.00 0.00 85 1009.6
20260505202719 10 22 3.2 17.7 0.00 0.00 0.00 84 1009.6
20260505201732 10 18 4.8 17.7 0.00 0.00 0.00 84 1009.5
20260505200721 10 28 6.4 19.3 0.00 0.00 0.00 84 1009.5
20260505195927 11 334 4.8 14.5 0.00 0.00 0.00 83 1009.3
20260505195730 11 329 8.0 19.3 0.00 0.00 0.00 83 1009.4
20260505193926 11 5 4.8 19.3 0.00 0.00 0.00 82 1009.3
20260505193724 11 329 4.8 19.3 0.00 0.00 0.00 82 1009.3
20260505191714 11 49 4.8 19.3 0.00 0.00 0.00 81 1009.2
20260505190751 11 18 6.4 19.3 0.00 0.00 0.00 81 1009.3
20260505185712 11 317 6.4 20.9 0.00 0.00 0.00 80 1009.2